History for Hollywood, FL

Saturday, November 10, 2012 — View Current Conditions

Jump to Data:

Date:
Airport Code:
Recently Viewed Airport Codes: KHWO
Daily Summary
  Actual Average (KFLL) Record (KFLL)
Temperature
Mean Temperature 74°F 76°F  
Max Temperature 78°F 82°F 88°F (1958)
Min Temperature 69°F 70°F 48°F (1956)
Degree Days
Heating Degree Days 0 0  
Month to date heating degree days 0  
Since 1 July heating degree days 0  
Cooling Degree Days 8 11  
Month to date cooling degree days 121  
Year to date cooling degree days 4315  
Growing Degree Days 24 (Base 50)    
Moisture
Dew Point 53°F    
Average Humidity 49    
Maximum Humidity 57    
Minimum Humidity 40    
Precipitation
Precipitation 0.00 in 0.10 in 1.12 in (1968)
Month to date precipitation 1.38  
Year to date precipitation 57.86  
Snow
Snow 0.00 in in in ()
Month to date snowfall  
Since 1 July snowfall  
Since 1 September snowfall  
Snow Depth in    
Sea Level Pressure
Sea Level Pressure 30.23 in    
Wind
Wind Speed 9 mph (ENE)    
Max Wind Speed 20 mph    
Max Gust Speed 26 mph    
Visibility 10 miles    
Events      
T = Trace of Precipitation, MM = Missing Value Source: NWS Daily Summary

Show full METARS

(help) - Comma Delimited File

Hourly Observations

Time(EST) Temperature Dew Point Humidity Sea Level Pressure Visibility Wind Direction Wind Speed Gust Speed Precipitation Events Conditions
12:53 AM 69.1°F 50.0°F 51% 30.20 in 10.0 miles NE 3.5 mph - N/A   Overcast
1:53 AM 70.0°F 50.0°F 49% 30.19 in 10.0 miles NE 6.9 mph - N/A   Overcast
2:53 AM 70.0°F 48.9°F 47% 30.19 in 10.0 miles East 10.4 mph - N/A   Overcast
3:53 AM 70.0°F 50.0°F 49% 30.19 in 10.0 miles East 5.8 mph - N/A   Overcast
4:53 AM 69.1°F 51.1°F 53% 30.21 in 10.0 miles ENE 4.6 mph - N/A   Overcast
5:53 AM 70.0°F 50.0°F 49% 30.22 in 10.0 miles ENE 4.6 mph - N/A   Overcast
6:53 AM 70.0°F 51.1°F 51% 30.23 in 10.0 miles ENE 6.9 mph - N/A   Overcast
7:53 AM 71.1°F 52.0°F 51% 30.25 in 10.0 miles NE 4.6 mph - N/A   Overcast
8:53 AM 73.0°F 53.1°F 49% 30.26 in 10.0 miles East 6.9 mph - N/A   Overcast
9:53 AM 73.9°F 54.0°F 50% 30.28 in 10.0 miles East 13.8 mph 21.9 mph N/A   Overcast
10:53 AM 75.0°F 53.1°F 46% 30.27 in 10.0 miles NE 12.7 mph - N/A   Overcast
11:53 AM 75.9°F 52.0°F 43% 30.26 in 10.0 miles ENE 19.6 mph 25.3 mph N/A   Overcast
12:53 PM 78.1°F 52.0°F 40% 30.24 in 10.0 miles East 17.3 mph 23.0 mph N/A   Clear
1:53 PM 77.0°F 53.1°F 43% 30.22 in 10.0 miles ENE 18.4 mph 24.2 mph N/A   Overcast
2:53 PM 77.0°F 53.1°F 43% 30.20 in 10.0 miles NE 17.3 mph 26.5 mph N/A   Scattered Clouds
3:53 PM 73.9°F 53.1°F 48% 30.20 in 10.0 miles NE 12.7 mph - N/A   Mostly Cloudy
4:53 PM 73.0°F 53.1°F 49% 30.21 in 10.0 miles NE 13.8 mph - N/A   Scattered Clouds
5:53 PM 72.0°F 54.0°F 53% 30.22 in 10.0 miles ENE 9.2 mph - N/A   Mostly Cloudy
6:53 PM 72.0°F 55.0°F 55% 30.24 in 10.0 miles NE 16.1 mph 21.9 mph N/A   Mostly Cloudy
7:53 PM 72.0°F 55.0°F 55% 30.24 in 10.0 miles ENE 15.0 mph - N/A   Partly Cloudy
8:53 PM 72.0°F 55.9°F 57% 30.25 in 10.0 miles ENE 11.5 mph - N/A   Mostly Cloudy
9:53 PM 72.0°F 55.9°F 57% 30.24 in 10.0 miles ENE 12.7 mph - N/A   Mostly Cloudy